Location: Newark
(48.3453°N, 0.5589°E)
Time: 21:41:12
(UTC+00:00)

Envisat - Visible Passes

Search period start: 18 November 2019 00:00
Search period end: 28 November 2019 00:00
Orbit: 764 x 766 km, 98.1° (Epoch: 18 November)

Date Brightness Start Highest point End Pass type
(mag) Time Alt. Az. Time Alt. Az. Time Alt. Az.
18 Nov 3.1 17:55:24 10° SSE 18:00:29 81° WSW 18:05:37 10° NNW visible
18 Nov 6.2 19:38:37 10° WSW 19:40:20 12° W 19:42:04 10° WNW visible
19 Nov 5.4 06:00:59 10° NE 06:05:17 27° E 06:09:34 10° SSE visible
19 Nov 3.1 17:18:54 10° SE 17:23:47 51° ENE 17:28:43 10° N visible
19 Nov 5.2 18:59:00 10° SW 19:03:05 24° W 19:07:12 10° NW visible
20 Nov 6.2 05:25:42 10° ENE 05:28:04 13° E 05:30:27 10° ESE visible
20 Nov 3.9 16:43:06 10° ESE 16:47:17 26° ENE 16:51:28 10° N visible
20 Nov 3.9 18:21:09 10° S 18:26:03 49° W 18:31:00 10° NNW visible
21 Nov 4.4 06:26:05 10° NNE 06:30:58 44° E 06:35:48 10° S visible
21 Nov 2.9 17:44:08 10° SSE 17:49:13 83° ENE 17:54:20 10° NNW visible
21 Nov 5.9 19:26:07 10° WSW 19:28:54 15° W 19:31:42 10° NW visible
22 Nov 5.7 05:49:58 10° NE 05:53:54 22° E 05:57:48 10° SE visible
22 Nov 3.4 17:07:50 10° SE 17:12:34 41° ENE 17:17:20 10° N visible
22 Nov 4.9 18:47:18 10° SSW 18:51:43 30° W 18:56:10 10° NNW visible
23 Nov 6.5 05:15:52 10° ENE 05:16:37 10° E 05:17:22 10° E visible
23 Nov 3.5 18:09:43 10° S 18:14:44 61° W 18:19:48 10° NNW visible
24 Nov 4.8 06:14:57 10° NNE 06:19:38 36° E 06:24:17 10° SSE visible
24 Nov 2.9 17:32:56 10° SSE 17:37:57 68° ENE 17:43:01 10° N visible
24 Nov 5.6 19:14:02 10° SW 19:17:29 18° W 19:20:57 10° NW visible
25 Nov 5.9 05:39:04 10° NE 05:42:30 18° E 05:45:54 10° SE visible
25 Nov 3.6 16:56:50 10° SE 17:01:22 34° ENE 17:05:55 10° N visible
25 Nov 4.5 18:35:42 10° SSW 18:40:21 36° W 18:45:04 10° NNW visible
26 Nov 3.7 06:40:12 10° NNE 06:45:15 60° E 06:50:16 10° S visible
26 Nov 3.2 17:58:22 10° S 18:03:26 75° WSW 18:08:33 10° NNW visible
26 Nov 6.2 19:42:22 10° W 19:43:21 10° W 19:44:20 10° WNW visible
27 Nov 5.2 06:03:51 10° NNE 06:08:15 29° E 06:12:40 10° SSE visible
27 Nov 3.1 17:21:47 10° SSE 17:26:43 55° ENE 17:31:41 10° N visible
27 Nov 5.4 19:02:09 10° SW 19:06:05 22° W 19:10:02 10° NW visible
